Regional Weather Roundup
Issued by NWS

Home | Current Version | Previous Version | Text Only | Print | Product List | Glossary On
Versions: 1 2 3 4 5 6 7 8 9 10 11 12 13 14 15 16 17 18 19 20 21 22 23 24 25 26 27 28 29 30 31 32 33 34 35 36 37 38 39 40 41 42 43 44 45 46 47 48 49 50
000
ASUS43 KMPX 230601
RWRMN
WEATHER ROUNDUP FOR MINNESOTA
NATIONAL WEATHER SERVICE TWIN CITIES/CHANHASSEN MN
100 AM CDT FRI JUN 23 2017


NOTE: "FAIR" INDICATES FEW OR NO CLOUDS BELOW 12,000 FEET WITH NO
SIGNIFICANT WEATHER AND/OR OBSTRUCTIONS TO VISIBILITY. N/A MEANS
CURRENT SKY AND/OR WEATHER CONDITIONS ARE NOT AVAILABLE.

MNZ060>063-068>070-230700-
   Twin Cities Metro

CITY           SKY/WX    TMP DP  RH WIND       PRES   REMARKS
TWIN CITIES    CLEAR     63  58  83 SW5       29.75S
6HR MIN TEMP:  63; 6HR MAX TEMP:  72;

ST PAUL        CLEAR     62  60  93 CALM      29.75S
CRYSTAL        CLEAR     60  53  77 W6        29.73F
BLAINE         CLEAR     63  57  82 W5        29.74S
LAKEVILLE      CLEAR     57  57 100 CALM      29.75S
EDEN PRAIRIE   CLEAR     60  56  86 SW6       29.74S
6HR MIN TEMP:  59; 6HR MAX TEMP:  72;

SOUTH ST PAUL  CLEAR     62  60  93 W3        29.74S
LAKE ELMO      FAIR      59  59 100 CALM      29.75S
$$
MNZ001>005-007-008-013>017-022>024-027-028-230700-
   Northwest Minnesota

CITY           SKY/WX    TMP DP  RH WIND       PRES   REMARKS
BEMIDJI        CLEAR     56  41  57 W7        29.68S
HALLOCK        CLEAR     55  50  82 W9        29.65S
ROSEAU           N/A     57  50  77 W10G17    29.63S
WARROAD        CLOUDY    57  50  77 W12       29.62S
CROOKSTON      CLEAR     55  46  71 W7        29.71S
FOSSTON        CLEAR     55  45  67 W15G22    29.71S
DETROIT LAKES  CLEAR     61  39  44 W12       29.74S
MOORHEAD       CLEAR     63  41  45 NW15G25   29.76R
PARK RAPIDS    CLEAR     51  41  68 W8        29.71S
MAHNOMEN       FAIR      58  44  61 W15       29.72R
$$
MNZ006-009>011-018-025>026-230700-
   North Central Minnesota

CITY           SKY/WX    TMP DP  RH WIND       PRES   REMARKS
BAUDETTE       PTCLDY    56  47  71 W7        29.61S
FLAG ISLAND    CLOUDY    57  48  72 W13       29.57S
INTL FALLS     CLOUDY    56  43  61 W5        29.60S
6HR MIN TEMP:  52; 6HR MAX TEMP:  72; 6HR PCP: TRACE;

WASKISH        MOCLDY    61  48  63 W17G25    29.65R
BIG FORK       CLOUDY    59  43  55 SW6       29.65F
LONGVILLE      CLEAR     59  43  55 W6        29.69S
GRAND RAPIDS   CLOUDY    61  43  51 SW6       29.68F
CRANE LAKE     CLOUDY    59  41  51 CALM      29.63S
ORR            CLOUDY    59  37  44 W5        29.61S
COOK           CLOUDY    61  41  48 W7G18     29.64S
WALKER         FAIR      57  40  52 W6        29.69S
$$
MNZ012-019>021-037-230700-
   Northeast Minnesota

CITY           SKY/WX    TMP DP  RH WIND       PRES   REMARKS
DULUTH         PTCLDY    53  52  96 W8        29.68S
6HR MIN TEMP:  53; 6HR MAX TEMP:  73; 6HR PCP:  0.14;

ELY            PTCLDY    54  43  66 S5        29.63F
HIBBING        MOCLDY    45  44  97 CALM      29.65F
EVELETH        CLEAR     50  47  88 CALM      29.66F
DULUTH HARBOR  CLEAR     61  57  88 SW9       29.67S
TWO HARBORS    CLEAR     57  52  82 NW5       29.64F
SILVER BAY       N/A     52  52 100 CALM      29.64S FOG
GRAND MARAIS     N/A     46  43  89 SW8       29.62S
G MARAIS ARPRT PTCLDY    54  43  66 SW3       29.66S
$$
MNZ029>031-032-039>041-046>048-054>057-064-230700-
   West Central Minnesota

CITY           SKY/WX    TMP DP  RH WIND       PRES   REMARKS
FERGUS FALLS   CLEAR     59  45  58 W10       29.73S
WHEATON        CLEAR     61  43  51 W8        29.79R
MORRIS         CLEAR     59  52  77 SW9       29.76S
ALEXANDRIA     CLEAR     57  49  74 SW8       29.76F
ELBOW LAKE     FAIR      58  46  63 SW10      29.76S
WADENA         CLEAR     55  45  67 SW6       29.72S
GLENWOOD       CLEAR     57  54  88 W7        29.76F
APPLETON       CLEAR     59  55  88 W6        29.77F
BENSON         CLEAR     59  55  88 W7        29.78F
ORTONVILLE     CLEAR     61  52  72 W6        29.78F
MADISON        CLEAR     64  57  77 W7        29.79F
WILLMAR        FAIR      61  55  82 W6        29.79S
$$
MNZ033>034-036-042>043-049>051-058-059-230700-
   Central Minnesota

CITY           SKY/WX    TMP DP  RH WIND       PRES   REMARKS
ST CLOUD       CLEAR     58  55  90 W8        29.74F
6HR MIN TEMP:  58; 6HR MAX TEMP:  73;

SAUK CENTRE    FAIR      56  53  89 SW3       29.76S
PAYNESVILLE    CLEAR     54  55 100 W3        29.77S
AITKIN         CLEAR     55  48  76 CALM      29.68F
PINE RIVER     CLEAR     55  45  67 CALM      29.74F
BRAINERD       CLEAR     57  50  77 SW5       29.71F
STAPLES        CLEAR     57  43  58 SW6       29.72F
LONG PRAIRIE   FAIR      55  52  88 S5        29.75F
LITTLE FALLS   CLEAR     57  52  82 CALM      29.74S
LITCHFIELD     CLEAR     64  54  68 W5        29.77F
BUFFALO        CLEAR     61  54  76 W5        29.76S
MAPLE LAKE     CLEAR     63  54  74 W3        29.76S
HUTCHINSON     CLEAR     58  55  91 W6        29.78S
$$
MNZ037-044-045-052-053-230700-
   East Central Minnesota

CITY           SKY/WX    TMP DP  RH WIND       PRES   REMARKS
PRINCETON      CLEAR     59  54  82 SW5       29.73F
MORA           CLEAR     59  52  77 W5        29.74F
CAMBRIDGE      CLEAR     63  52  67 CALM      29.71F
RUSH CITY      MOCLDY    59  54  82 W5        29.72F
MOOSE LAKE     PTCLDY    59  54  82 W5        29.68F
HINCKLEY       FAIR      55  54  94 SW5       29.71F
CLOQUET        CLEAR     61  52  72 SW6       29.68F
MCGREGOR       CLEAR     59  54  82 SW5       29.70F
$$
MNZ071>073-080-081-089-090-097-098-230700-
   Southwest Minnesota

CITY           SKY/WX    TMP DP  RH WIND       PRES   REMARKS
MONTEVIDEO     CLEAR     61  55  82 W5        29.79S
GRANITE FALLS  CLEAR     60  56  87 SW7       29.81S
CANBY          CLEAR     64  56  76 CALM      29.82R
MARSHALL       CLEAR     61  55  81 W10       29.80F
REDWOOD FALLS  CLEAR     62  52  69 W7        29.78S
OLIVIA         CLEAR     57  52  82 W3        29.77S
PIPESTONE      CLEAR     61  52  72 NW5       29.84S
WINDOM         CLEAR     57  54  88 CALM      29.82S
WORTHINGTON    CLEAR     56  50  80 W6        29.84R
JACKSON        CLEAR     55  52  88 CALM      29.82S
TRACY          CLEAR     64  54  70 W6        29.81F
SLAYTON        CLEAR     57  45  65 W6        29.84S
$$
MNZ065>067-074>077-082>085-091>093-230700-
   South Central Minnesota

CITY           SKY/WX    TMP DP  RH WIND       PRES   REMARKS
MANKATO        CLEAR     59  56  89 W7        29.78S
NEW ULM        CLEAR     55  54  94 W6        29.78S
ST JAMES       CLEAR     57  54  88 W5        29.80S
FAIRMONT       CLEAR     59  56  89 W3        29.80S
GLENCOE        CLEAR     62  57  85 W3        29.76S
FARIBAULT      PTCLDY    59  57  94 MISG      29.77R
OWATONNA       CLEAR     61  57  88 CALM      29.77S
WASECA         CLEAR     55  54  94 W3        29.79S
ALBERT LEA     CLOUDY    64  61  88 CALM      29.78S
$$
MNZ078>079-086>088-094>096-230700-
   Southeast Minnesota

CITY           SKY/WX    TMP DP  RH WIND       PRES   REMARKS
ROCHESTER      CLOUDY    64  64 100 NW8       29.77S FOG
6HR MIN TEMP:  64; 6HR MAX TEMP:  70; 6HR PCP:  0.01;

RED WING       CLOUDY    63  61  94 CALM      29.73S FOG
STANTON        CLOUDY    61  58  92 SW3       29.75R
DODGE CENTER   CLOUDY    63  61  94 NW5       29.77F FOG
WINONA         CLOUDY    66  64  94 NW5       29.73S
AUSTIN         CLOUDY    64  63  94 NW3       29.77R FOG
PRESTON        CLOUDY    64  62  94 N7        29.76R
$$
ABBREVIATIONS USED IN REMARKS
   TC - TEMPERATURES IN CELSIUS
  WCI - WIND CHILL INDEX
   HX - HEAT INDEX
  VSB - VISIBILITY
$$




USA.gov is the U.S. government's official web portal to all federal, state and local government web resources and services.